EW8363 Weather Reports


Display with metric or nautical units.
time (UTC)temp
F
wind
direction
speed
MPH
gust
MPH
rain 1hr
in
rain 24hr
in
rain mn
in
humidity
%
barometer
mb
20200228004557 73 0 3.0 5.0 0.00 0.00 0.00 15 1025.4
20200228004046 73 0 3.0 5.0 0.00 0.00 0.00 15 1025.2
20200228003535 74 0 3.0 5.0 0.00 0.00 0.00 15 1025.3
20200228003024 74 0 1.0 3.0 0.00 0.00 0.00 15 1025.2
20200228002516 75 90 1.0 2.0 0.00 0.00 0.00 15 1025.3
20200228002006 76 0 1.0 1.0 0.00 0.00 0.00 15 1025.2
20200228001454 77 270 0.0 0.0 0.00 0.00 0.00 15 1025.1
20200228000945 77 0 0.0 0.0 0.00 0.00 0.00 15 1025.0
20200228000434 77 225 0.0 2.0 0.00 0.00 0.00 19 1024.7
20200227235929 77 225 0.0 3.0 0.00 0.00 0.00 19 1025.1
20200227235416 76 180 2.0 4.0 0.00 0.00 0.00 19 1025.1
20200227234904 76 180 3.0 4.0 0.00 0.00 0.00 19 1025.2
20200227234353 77 180 1.0 3.0 0.00 0.00 0.00 19 1024.9
20200227233845 77 180 1.0 3.0 0.00 0.00 0.00 19 1025.0
20200227233339 77 180 2.0 3.0 0.00 0.00 0.00 19 1024.7
20200227232825 78 225 1.0 3.0 0.00 0.00 0.00 19 1024.9
20200227232322 78 270 1.0 3.0 0.00 0.00 0.00 19 1024.7
20200227231803 77 135 2.0 3.0 0.00 0.00 0.00 19 1024.7
20200227231253 78 180 0.0 2.0 0.00 0.00 0.00 19 1024.9
20200227230743 78 0 1.0 2.0 0.00 0.00 0.00 19 1024.7
20200227230234 78 315 1.0 2.0 0.00 0.00 0.00 19 1025.0
20200227225721 79 90 1.0 2.0 0.00 0.00 0.00 15 1025.0
20200227225213 80 270 0.0 2.0 0.00 0.00 0.00 15 1024.7
20200227224702 78 270 1.0 3.0 0.00 0.00 0.00 15 1025.1
20200227224152 78 180 1.0 3.0 0.00 0.00 0.00 15 1025.1
20200227223644 78 270 1.0 3.0 0.00 0.00 0.00 15 1025.1
20200227223131 78 225 1.0 3.0 0.00 0.00 0.00 15 1025.1
20200227222621 78 180 1.0 5.0 0.00 0.00 0.00 15 1025.3
20200227222112 77 180 2.0 5.0 0.00 0.00 0.00 15 1025.3
20200227221601 76 135 3.0 4.0 0.00 0.00 0.00 15 1025.2
20200227221052 76 225 3.0 5.0 0.00 0.00 0.00 15 1025.1
20200227220541 76 180 3.0 5.0 0.00 0.00 0.00 15 1025.2
20200227220030 76 180 3.0 7.0 0.00 0.00 0.00 15 1025.0
20200227215521 76 225 3.0 7.0 0.00 0.00 0.00 15 1025.1
20200227215012 77 180 3.0 5.0 0.00 0.00 0.00 15 1025.2
20200227214501 76 180 3.0 5.0 0.00 0.00 0.00 15 1025.3
20200227213950 77 180 3.0 5.0 0.00 0.00 0.00 15 1025.3
20200227213442 77 135 3.0 5.0 0.00 0.00 0.00 15 1025.3
20200227212930 78 135 3.0 3.0 0.00 0.00 0.00 15 1025.3
20200227212420 78 135 1.0 5.0 0.00 0.00 0.00 15 1025.4
20200227211911 77 270 1.0 6.0 0.00 0.00 0.00 15 1025.4
20200227211359 76 180 5.0 6.0 0.00 0.00 0.00 15 1025.5
20200227210849 76 135 4.0 6.0 0.00 0.00 0.00 15 1025.5
20200227210340 75 90 4.0 6.0 0.00 0.00 0.00 15 1025.5
20200227205829 76 180 4.0 6.0 0.00 0.00 0.00 15 1025.5
20200227205320 75 135 5.0 7.0 0.00 0.00 0.00 15 1025.7
20200227204810 76 225 4.0 7.0 0.00 0.00 0.00 15 1025.6
20200227204258 77 180 4.0 7.0 0.00 0.00 0.00 15 1025.7
20200227203749 77 135 4.0 7.0 0.00 0.00 0.00 15 1025.5
20200227203240 76 90 5.0 6.0 0.00 0.00 0.00 15 1025.6
20200227202730 77 135 4.0 6.0 0.00 0.00 0.00 15 1025.6
20200227202218 77 270 5.0 8.0 0.00 0.00 0.00 15 1025.8
20200227201708 77 135 4.0 8.0 0.00 0.00 0.00 15 1025.6
20200227201158 77 270 6.0 8.0 0.00 0.00 0.00 15 1025.7
20200227200648 79 0 1.0 5.0 0.00 0.00 0.00 15 1025.9
20200227200140 77 180 5.0 5.0 0.00 0.00 0.00 15 1026.0
20200227195627 77 180 3.0 6.0 0.00 0.00 0.00 15 1025.9
20200227195117 75 180 4.0 6.0 0.00 0.00 0.00 15 1025.9
20200227194608 76 135 1.0 5.0 0.00 0.00 0.00 15 1026.1
20200227194100 77 180 3.0 5.0 0.00 0.00 0.00 15 1026.4
20200227193548 78 180 2.0 7.0 0.00 0.00 0.00 15 1026.4
20200227193038 75 225 3.0 7.0 0.00 0.00 0.00 15 1026.6
20200227192526 77 135 3.0 7.0 0.00 0.00 0.00 15 1026.5
20200227192017 77 135 1.0 7.0 0.00 0.00 0.00 15 1026.7
20200227191508 76 135 3.0 5.0 0.00 0.00 0.00 15 1026.7
20200227190957 75 180 5.0 7.0 0.00 0.00 0.00 15 1026.5
20200227190445 75 180 4.0 7.0 0.00 0.00 0.00 15 1026.7
20200227185936 74 135 5.0 8.0 0.00 0.00 0.00 15 1026.7
20200227185426 75 90 5.0 8.0 0.00 0.00 0.00 15 1026.8
20200227184916 75 135 5.0 7.0 0.00 0.00 0.00 15 1026.6
20200227184407 76 180 2.0 6.0 0.00 0.00 0.00 20 1026.6
20200227183855 75 135 5.0 6.0 0.00 0.00 0.00 15 1026.4
20200227183345 76 135 3.0 5.0 0.00 0.00 0.00 15 1026.5
20200227182838 77 180 3.0 5.0 0.00 0.00 0.00 15 1026.6
20200227182325 77 135 3.0 6.0 0.00 0.00 0.00 15 1026.7
20200227181816 75 270 3.0 6.0 0.00 0.00 0.00 15 1026.7
20200227181306 77 180 5.0 6.0 0.00 0.00 0.00 15 1026.5
20200227180754 78 180 2.0 6.0 0.00 0.00 0.00 15 1026.6
20200227180244 75 225 4.0 6.0 0.00 0.00 0.00 15 1026.4
20200227175736 75 135 4.0 5.0 0.00 0.00 0.00 19 1026.5
20200227175225 76 180 2.0 5.0 0.00 0.00 0.00 15 1026.5
20200227174714 78 0 1.0 6.0 0.00 0.00 0.00 15 1026.5
20200227174204 77 135 2.0 6.0 0.00 0.00 0.00 15 1026.5
20200227173653 76 225 3.0 5.0 0.00 0.00 0.00 15 1026.3
20200227173143 78 90 1.0 4.0 0.00 0.00 0.00 15 1026.2
20200227172636 75 135 2.0 4.0 0.00 0.00 0.00 15 1026.5
20200227172123 75 90 3.0 4.0 0.00 0.00 0.00 15 1026.4
20200227171613 76 180 1.0 3.0 0.00 0.00 0.00 15 1026.4
20200227171104 76 90 1.0 5.0 0.00 0.00 0.00 20 1026.3
20200227170552 74 180 3.0 5.0 0.00 0.00 0.00 20 1026.5
20200227170044 74 90 3.0 4.0 0.00 0.00 0.00 15 1026.4
20200227165533 75 90 2.0 3.0 0.00 0.00 0.00 15 1026.4
20200227165022 74 90 1.0 3.0 0.00 0.00 0.00 15 1026.4
20200227164512 75 45 1.0 4.0 0.00 0.00 0.00 15 1026.4
20200227164003 74 90 1.0 5.0 0.00 0.00 0.00 19 1026.4
20200227163452 70 90 3.0 6.0 0.00 0.00 0.00 15 1026.2
20200227162942 71 0 3.0 6.0 0.00 0.00 0.00 19 1026.2
20200227162433 69 45 5.0 6.0 0.00 0.00 0.00 19 1026.3
20200227161922 69 45 4.0 6.0 0.00 0.00 0.00 19 1026.4
20200227161411 69 0 5.0 6.0 0.00 0.00 0.00 19 1026.3
20200227160904 68 0 5.0 6.0 0.00 0.00 0.00 19 1026.3
20200227160351 68 0 4.0 5.0 0.00 0.00 0.00 19 1026.3
20200227155844 68 45 4.0 5.0 0.00 0.00 0.00 19 1026.6
20200227155332 68 0 1.0 4.0 0.00 0.00 0.00 19 1026.3
20200227154820 68 0 0.0 5.0 0.00 0.00 0.00 19 1026.3
20200227154312 67 0 3.0 5.0 0.00 0.00 0.00 19 1026.5
20200227153801 65 0 3.0 5.0 0.00 0.00 0.00 15 1026.5
20200227153250 64 0 2.0 4.0 0.00 0.00 0.00 15 1026.4
20200227152740 63 0 3.0 4.0 0.00 0.00 0.00 15 1026.4
20200227152230 62 0 2.0 3.0 0.00 0.00 0.00 20 1026.5
20200227151721 63 315 2.0 3.0 0.00 0.00 0.00 15 1026.4
20200227151210 62 0 2.0 3.0 0.00 0.00 0.00 15 1026.3
20200227150700 61 315 1.0 3.0 0.00 0.00 0.00 15 1026.4
20200227150149 60 0 3.0 3.0 0.00 0.00 0.00 15 1026.5
20200227145639 61 0 2.0 3.0 0.00 0.00 0.00 19 1026.4
20200227145131 62 315 2.0 3.0 0.00 0.00 0.00 19 1026.5
20200227144618 62 0 2.0 3.0 0.00 0.00 0.00 19 1026.2
20200227144109 63 0 3.0 5.0 0.00 0.00 0.00 19 1026.3
20200227143600 62 315 3.0 5.0 0.00 0.00 0.00 19 1026.0
20200227143049 62 0 3.0 5.0 0.00 0.00 0.00 19 1025.9
20200227142539 59 0 3.0 5.0 0.00 0.00 0.00 15 1025.9
20200227142029 61 0 3.0 5.0 0.00 0.00 0.00 19 1025.8
20200227141517 61 0 3.0 3.0 0.00 0.00 0.00 19 1025.6
20200227141007 61 0 2.0 3.0 0.00 0.00 0.00 19 1025.6
20200227140459 62 0 2.0 3.0 0.00 0.00 0.00 19 1025.5
20200227135948 62 0 2.0 3.0 0.00 0.00 0.00 19 1025.5
20200227135438 63 315 3.0 4.0 0.00 0.00 0.00 19 1025.5
20200227134928 62 0 3.0 4.0 0.00 0.00 0.00 19 1025.2
20200227134417 62 0 3.0 4.0 0.00 0.00 0.00 19 1025.4
20200227133907 61 0 2.0 3.0 0.00 0.00 0.00 19 1025.2
20200227133359 62 0 3.0 4.0 0.00 0.00 0.00 19 1025.3
20200227132847 62 0 3.0 5.0 0.00 0.00 0.00 19 1025.4
20200227132336 61 0 3.0 5.0 0.00 0.00 0.00 15 1025.4
20200227131827 61 0 3.0 4.0 0.00 0.00 0.00 19 1025.4
20200227131316 62 0 2.0 4.0 0.00 0.00 0.00 19 1025.4
20200227130807 62 0 3.0 4.0 0.00 0.00 0.00 19 1025.4
20200227130257 61 0 3.0 6.0 0.00 0.00 0.00 19 1025.6
20200227125746 61 0 3.0 6.0 0.00 0.00 0.00 19 1025.7
20200227125235 60 0 0.0 4.0 0.00 0.00 0.00 15 1025.5
20200227124726 60 0 3.0 4.0 0.00 0.00 0.00 15 1025.5
20200227124217 60 0 3.0 3.0 0.00 0.00 0.00 15 1025.6
20200227123705 60 0 2.0 4.0 0.00 0.00 0.00 15 1025.8
20200227123156 60 0 3.0 6.0 0.00 0.00 0.00 15 1025.7
20200227122645 61 0 1.0 6.0 0.00 0.00 0.00 19 1025.7
20200227122135 61 0 2.0 4.0 0.00 0.00 0.00 19 1025.5
20200227121630 60 0 2.0 4.0 0.00 0.00 0.00 19 1025.4
20200227121114 62 0 2.0 4.0 0.00 0.00 0.00 19 1025.7
20200227120604 60 315 3.0 4.0 0.00 0.00 0.00 19 1025.8
20200227120055 60 315 3.0 5.0 0.00 0.00 0.00 19 1025.5
20200227115543 61 0 3.0 7.0 0.00 0.00 0.00 19 1025.7
20200227115035 61 0 4.0 7.0 0.00 0.00 0.00 19 1025.8
20200227114525 61 0 2.0 5.0 0.00 0.00 0.00 19 1025.8
20200227114013 62 0 3.0 5.0 0.00 0.00 0.00 19 1026.0
20200227113504 63 0 2.0 5.0 0.00 0.00 0.00 19 1026.0
20200227112954 63 0 4.0 7.0 0.00 0.00 0.00 19 1025.9
20200227112444 64 0 6.0 8.0 0.00 0.00 0.00 19 1025.9
20200227111933 64 0 5.0 8.0 0.00 0.00 0.00 19 1025.9
20200227111424 63 0 4.0 7.0 0.00 0.00 0.00 19 1026.0
20200227110912 62 0 3.0 7.0 0.00 0.00 0.00 19 1025.9
20200227110402 63 0 3.0 8.0 0.00 0.00 0.00 19 1026.1
20200227105854 62 0 3.0 8.0 0.00 0.00 0.00 19 1026.0
20200227105342 64 0 6.0 8.0 0.00 0.00 0.00 19 1026.1
20200227104832 64 0 5.0 7.0 0.00 0.00 0.00 19 1026.0
20200227104323 62 0 4.0 8.0 0.00 0.00 0.00 19 1026.1
20200227103812 63 0 7.0 8.0 0.00 0.00 0.00 19 1026.2
20200227103302 63 315 3.0 7.0 0.00 0.00 0.00 19 1026.1
20200227102752 63 270 3.0 9.0 0.00 0.00 0.00 19 1026.1
20200227102241 65 0 5.0 9.0 0.00 0.00 0.00 19 1026.1
20200227101731 64 0 5.0 8.0 0.00 0.00 0.00 19 1026.2
20200227101222 63 0 6.0 7.0 0.00 0.00 0.00 19 1026.1
20200227100712 64 0 5.0 9.0 0.00 0.00 0.00 19 1026.4
20200227100200 64 0 6.0 9.0 0.00 0.00 0.00 19 1026.3
20200227095652 64 0 5.0 7.0 0.00 0.00 0.00 19 1026.4
20200227095140 64 0 5.0 7.0 0.00 0.00 0.00 19 1026.3
20200227094630 64 0 5.0 7.0 0.00 0.00 0.00 19 1026.4
20200227094123 63 0 5.0 6.0 0.00 0.00 0.00 19 1026.6
20200227093610 62 0 1.0 4.0 0.00 0.00 0.00 19 1026.6
20200227093059 61 315 1.0 7.0 0.00 0.00 0.00 19 1026.5
20200227092550 63 0 3.0 7.0 0.00 0.00 0.00 19 1026.6
20200227092040 65 0 5.0 8.0 0.00 0.00 0.00 19 1026.4
20200227091530 63 0 3.0 9.0 0.00 0.00 0.00 19 1026.5
20200227091021 63 45 4.0 9.0 0.00 0.00 0.00 19 1026.6
20200227090509 64 0 6.0 9.0 0.00 0.00 0.00 19 1026.5
20200227085959 64 0 5.0 9.0 0.00 0.00 0.00 19 1026.6
20200227085450 64 0 5.0 8.0 0.00 0.00 0.00 19 1026.8
20200227084940 64 0 7.0 8.0 0.00 0.00 0.00 19 1027.0
20200227084428 64 0 5.0 7.0 0.00 0.00 0.00 19 1027.1
20200227083920 64 45 5.0 7.0 0.00 0.00 0.00 19 1027.1
20200227083412 63 0 4.0 7.0 0.00 0.00 0.00 19 1027.1
20200227082858 63 0 6.0 7.0 0.00 0.00 0.00 19 1027.2
20200227082350 62 315 3.0 6.0 0.00 0.00 0.00 19 1027.1
20200227081837 62 0 3.0 6.0 0.00 0.00 0.00 19 1027.0
20200227081327 63 0 4.0 5.0 0.00 0.00 0.00 19 1027.1
20200227080818 61 315 1.0 3.0 0.00 0.00 0.00 19 1027.0
20200227080308 62 90 1.0 3.0 0.00 0.00 0.00 19 1027.1
20200227075759 62 0 2.0 3.0 0.00 0.00 0.00 19 1027.1
20200227075249 62 0 2.0 4.0 0.00 0.00 0.00 19 1027.3
20200227074736 60 0 1.0 5.0 0.00 0.00 0.00 19 1027.3
20200227074227 61 0 4.0 5.0 0.00 0.00 0.00 19 1027.2
20200227073717 62 0 3.0 4.0 0.00 0.00 0.00 19 1027.2
20200227073208 62 225 0.0 2.0 0.00 0.00 0.00 19 1027.0
20200227072657 62 270 1.0 3.0 0.00 0.00 0.00 19 1027.0
20200227072147 62 0 1.0 3.0 0.00 0.00 0.00 19 1027.1
20200227071636 64 270 1.0 3.0 0.00 0.00 0.00 19 1027.0
20200227071126 62 0 1.0 4.0 0.00 0.00 0.00 19 1027.0
20200227070618 63 0 3.0 5.0 0.00 0.00 0.00 19 1027.0
20200227070106 64 0 2.0 5.0 0.00 0.00 0.00 19 1027.2
20200227065556 65 0 4.0 5.0 0.00 0.00 0.00 19 1027.0
20200227065046 64 0 3.0 5.0 0.00 0.00 0.00 19 1027.1
20200227064535 64 315 1.0 4.0 0.00 0.00 0.00 19 1027.0
20200227064026 63 0 3.0 4.0 0.00 0.00 0.00 19 1026.8
20200227063516 61 0 3.0 5.0 0.00 0.00 0.00 19 1027.2
20200227063004 62 0 2.0 5.0 0.00 0.00 0.00 19 1027.1
20200227062454 62 0 3.0 5.0 0.00 0.00 0.00 19 1027.1
20200227061946 62 0 3.0 5.0 0.00 0.00 0.00 19 1027.0
20200227061435 62 0 3.0 4.0 0.00 0.00 0.00 19 1027.0
20200227060924 63 0 2.0 4.0 0.00 0.00 0.00 19 1027.0
20200227060416 64 180 3.0 6.0 0.00 0.00 0.00 19 1027.0
20200227055904 64 180 3.0 6.0 0.00 0.00 0.00 19 1027.0
20200227055354 66 0 5.0 6.0 0.00 0.00 0.00 19 1026.8
20200227054846 65 0 3.0 5.0 0.00 0.00 0.00 19 1026.5
20200227054336 65 0 3.0 10.0 0.00 0.00 0.00 19 1027.1
20200227053823 66 0 4.0 10.0 0.00 0.00 0.00 19 1026.6
20200227053314 67 0 6.0 10.0 0.00 0.00 0.00 19 1026.7
20200227052803 66 0 7.0 9.0 0.00 0.00 0.00 19 1026.8
20200227052254 67 0 5.0 9.0 0.00 0.00 0.00 19 1027.0
20200227051743 66 0 6.0 9.0 0.00 0.00 0.00 19 1026.8
20200227051232 66 0 7.0 9.0 0.00 0.00 0.00 19 1027.0
20200227050722 67 0 9.0 9.0 0.00 0.00 0.00 19 1026.8
20200227050214 66 0 5.0 10.0 0.00 0.00 0.00 19 1026.8
20200227045703 66 0 7.0 10.0 0.00 0.00 0.00 19 1026.7
20200227045202 66 0 5.0 10.0 0.00 0.00 0.00 19 1026.6
20200227044642 66 0 6.0 9.0 0.00 0.00 0.00 19 1026.8
20200227044132 66 0 6.0 9.0 0.00 0.00 0.00 19 1026.6
20200227043622 67 0 6.0 9.0 0.00 0.00 0.00 19 1026.6
20200227043113 66 0 7.0 8.0 0.00 0.00 0.00 19 1026.4
20200227042601 65 0 4.0 7.0 0.00 0.00 0.00 19 1026.6
20200227042051 66 0 4.0 8.0 0.00 0.00 0.00 19 1026.6
20200227041542 66 0 5.0 8.0 0.00 0.00 0.00 19 1026.3
20200227041031 66 0 5.0 8.0 0.00 0.00 0.00 19 1026.4
20200227040522 66 0 7.0 9.0 0.00 0.00 0.00 19 1026.3
20200227040012 66 0 7.0 9.0 0.00 0.00 0.00 19 1026.4
20200227035501 67 0 6.0 9.0 0.00 0.00 0.00 19 1026.3
20200227034950 66 0 5.0 9.0 0.00 0.00 0.00 19 1026.3
20200227034441 66 0 5.0 7.0 0.00 0.00 0.00 19 1026.4
20200227033931 66 0 5.0 7.0 0.00 0.00 0.00 19 1026.3
20200227033420 67 0 4.0 7.0 0.00 0.00 0.00 19 1026.4
20200227032911 66 0 4.0 9.0 0.00 0.00 0.00 19 1026.5
20200227032359 66 0 5.0 9.0 0.00 0.00 0.00 19 1026.2
20200227031849 65 0 5.0 6.0 0.00 0.00 0.00 19 1026.5
20200227031342 65 0 3.0 6.0 0.00 0.00 0.00 19 1026.5
20200227030829 65 0 3.0 6.0 0.00 0.00 0.00 19 1026.3
20200227030319 67 0 4.0 6.0 0.00 0.00 0.00 19 1026.4
20200227025810 66 0 3.0 6.0 0.00 0.00 0.00 19 1026.4
20200227025259 67 0 5.0 6.0 0.00 0.00 0.00 19 1026.5
20200227024749 67 0 4.0 7.0 0.00 0.00 0.00 19 1026.4
20200227024239 67 0 5.0 7.0 0.00 0.00 0.00 19 1026.3
20200227023728 66 0 3.0 7.0 0.00 0.00 0.00 19 1026.2
20200227023218 66 0 4.0 7.0 0.00 0.00 0.00 19 1026.3
20200227022709 67 0 5.0 7.0 0.00 0.00 0.00 19 1026.2
20200227022159 65 0 2.0 7.0 0.00 0.00 0.00 19 1026.3
20200227021648 66 0 6.0 7.0 0.00 0.00 0.00 19 1026.5
20200227021139 65 0 3.0 5.0 0.00 0.00 0.00 19 1026.4
20200227020627 66 0 4.0 5.0 0.00 0.00 0.00 15 1026.7
20200227020117 66 0 4.0 5.0 0.00 0.00 0.00 15 1026.4
20200227015609 65 0 3.0 5.0 0.00 0.00 0.00 15 1026.6
20200227015057 66 45 3.0 5.0 0.00 0.00 0.00 19 1026.5
20200227014547 66 0 4.0 5.0 0.00 0.00 0.00 19 1026.5
20200227014038 66 0 2.0 3.0 0.00 0.00 0.00 15 1026.4
20200227013527 67 0 3.0 3.0 0.00 0.00 0.00 19 1026.5
20200227013017 67 315 0.0 3.0 0.00 0.00 0.00 19 1026.6
20200227012507 69 270 1.0 2.0 0.00 0.00 0.00 15 1026.5
20200227011956 70 270 0.0 1.0 0.00 0.00 0.00 15 1026.6
20200227011446 70 270 0.0 3.0 0.00 0.00 0.00 15 1026.3
20200227010939 70 180 1.0 3.0 0.00 0.00 0.00 15 1026.4
20200227010427 71 180 1.0 4.0 0.00 0.00 0.00 15 1026.4
20200227005915 72 180 1.0 4.0 0.00 0.00 0.00 15 1026.4
20200227005406 71 225 3.0 5.0 0.00 0.00 0.00 15 1026.4